Aéroport int. Stanfield de Halifax, Nouvelle Écosse

Conditions des dernières 24 heures

Ce tableau est un sommaire des conditions météo couvrant les dernières 24 heures. Ce sommaire inclut les paramètres suivants: température, humidité, point de rosée, direction et vitesse du vent, pression barométrique, facteur de refroidissement éolien ou indice humidex.
Date / Heure
(HAA)
Conditions Temp (°C) Humidite (%) Point de rose (°C) Vent (km/h) Pression (kPa) Vis (km) Humidex
01 septembre 2014
15:00 Partiellement nuageux 24 78 20 NO 20 rafale 33 101,4 24 32
14:00 Nuageux 24 81 20 NNO 17 101,4 24 31
13:00 Généralement nuageux 25   78 21 NO 13 101,3 24 33
12:00 Généralement nuageux 23 84 20 NO 10 101,4 24 31
11:00 Généralement nuageux 21 93 20 NO 10 101,4 24 28
10:00 Généralement nuageux 20 95 19 NO 9 101,4 24 27
9:00 Généralement nuageux 19 96 19 O 10 101,4 16 *
8:00 Faible averse de pluie 18   98 18 SSO 7 101,4 5 *
7:00 Faible averse de pluie 18   98 18 SSO 16 101,4 2 *
6:00 Faible averse de pluie 18   98 18 OSO 7 101,4 2 *
5:00 Faible averse de pluie 18   98 18 S 7 101,4 2 *
4:00 Faible averse de pluie 19 98 18 SO 13 101,4 5 *
3:00 Faible averse de pluie 18   98 18 SO 16 101,4 5 *
2:00 Faible averse de pluie 18   97 18 SO 18 101,4 5 *
1:00 Faible averse de pluie 18   96 18 SO 19 rafale 30 101,5 5 *
0:00 Faible averse de pluie 19 95 18 SSO 18 101,4 8 *
31 août 2014
23:00 Faible averse de pluie 19 93 18 SSO 14 101,5 13 *
22:00 Faible averse de pluie 20 91 18 SO 13 101,5 24 *
21:00 Généralement nuageux 19 88 17 SSO 12 101,5 24 *
20:00 Généralement nuageux 19 87 17 SSO 14 101,5 24 *
19:00 Généralement nuageux 20 86 17 SSO 17 101,5 24 *
18:00 Généralement nuageux 21 82 18 SSO 14 101,5 24 27
17:00 Généralement nuageux 22 77 17 SSO 20 rafale 31 101,5 24 27
16:00 Généralement nuageux 23 69 17 SO 23 101,6 24 28
15:00 Généralement nuageux 22 72 17 SSO 22 rafale 38 101,6 24 27
N.D.
non disponible
 ↑ 
température la plus haute
 ↓ 
température la plus basse
*
Valeur non significative.

Si vous désirez plus de données historiques sur les conditions météo, s.v.p. visitez Données climatologiques en ligne.